Wetterdaten Sommer 2011

Datum T max T min Regen
01.06.2011 11.2 °C 9.6 °C 8.6 mm
02.06.2011 22.7 °C 10.3 °C 0 mm
03.06.2011 26.4 °C 13.6 °C 0 mm
04.06.2011 28.6 °C 17.4 °C 0 mm
05.06.2011 27.6 °C 17 °C 6.8 mm
06.06.2011 19.6 °C 17 °C 16.9 mm
07.06.2011 27 °C 15 °C 0 mm
08.06.2011 21.8 °C 12.3 °C 24.1 mm
09.06.2011 16.8 °C 12.4 °C 0 mm
10.06.2011 22.1 °C 13.1 °C 1.8 mm
11.06.2011 19.5 °C 12.6 °C 1.1 mm
12.06.2011 24.1 °C 12.1 °C 0 mm
13.06.2011 19.2 °C 13.6 °C 1.4 mm
14.06.2011 23.1 °C 15 °C 21.6 mm
15.06.2011 24.5 °C 15.6 °C 0.4 mm
16.06.2011 25.9 °C 14.5 °C 10.1 mm
17.06.2011 24.3 °C 14 °C 9.4 mm
18.06.2011 17.6 °C 12.4 °C 9.4 mm
19.06.2011 18.2 °C 11.2 °C 1.1 mm
20.06.2011 17 °C 12 °C 1.8 mm
21.06.2011 25.5 °C 16.4 °C 0 mm
22.06.2011 27.8 °C 15.6 °C 8.3 mm
23.06.2011 21.9 °C 13.6 °C 1.8 mm
24.06.2011 21 °C 11.9 °C 0.4 mm
25.06.2011 20 °C 13.2 °C 0 mm
26.06.2011 27.6 °C 17.5 °C 0 mm
27.06.2011 32.2 °C 25.1 °C 0 mm
28.06.2011 33 °C 20.1 °C 0 mm
29.06.2011 27.2 °C 16.9 °C 0.7 mm
30.06.2011 21.1 °C 13.8 °C 7.6 mm
01.07.2011 17.3 °C 12.3 °C 10.8 mm
02.07.2011 20.3 °C 9.7 °C 0 mm
03.07.2011 22.3 °C 12.8 °C 0 mm
04.07.2011 28.4 °C 12.5 °C 0 mm
05.07.2011 30 °C 16.8 °C 0 mm
06.07.2011 27.3 °C 18.2 °C 0 mm
07.07.2011 27.5 °C 15.9 °C 9 mm
08.07.2011 26.7 °C 14.4 °C 2.5 mm
09.07.2011 29 °C 16 °C 0 mm
10.07.2011 27.1 °C 17.6 °C 7.2 mm
11.07.2011 26.9 °C 15.5 °C 0.4 mm
12.07.2011 33 °C 16.8 °C 5 mm
13.07.2011 26 °C 14.5 °C 10.1 mm
14.07.2011 20.5 °C 12.4 °C 1.4 mm
15.07.2011 21.8 °C 11.7 °C 0 mm
16.07.2011 28.1 °C 11.2 °C 0 mm
17.07.2011 21.5 °C 12.6 °C 10.8 mm
18.07.2011 21.5 °C 11.4 °C 0 mm
19.07.2011 24.5 °C 10.9 °C 8.6 mm
20.07.2011 15.2 °C 12.3 °C 13.3 mm
21.07.2011 20.8 °C 11.5 °C 9.7 mm
22.07.2011 21.4 °C 14.4 °C 0.4 mm
23.07.2011 20.4 °C 12.9 °C 0.4 mm
24.07.2011 16.4 °C 11.6 °C 0.7 mm
25.07.2011 21.8 °C 12 °C 0.4 mm
26.07.2011 23.6 °C 12.4 °C 0 mm
27.07.2011 25 °C 15.5 °C 4 mm
28.07.2011 24.8 °C 15.3 °C 3.2 mm
29.07.2011 25.4 °C 15.7 °C 0 mm
30.07.2011 20.2 °C 12.4 °C 0 mm
31.07.2011 17.6 °C 13.8 °C 0 mm
01.08.2011 24.6 °C 11.7 °C 0 mm
02.08.2011 29.8 °C 14.9 °C 0 mm
03.08.2011 27.2 °C 17.8 °C 0.4 mm
04.08.2011 28.9 °C 18 °C 2.9 mm
05.08.2011 26 °C 17.8 °C 4.3 mm
06.08.2011 28.3 °C 16.2 °C 0 mm
07.08.2011 22 °C 15.4 °C 18 mm
08.08.2011 20.6 °C 14 °C 0.7 mm
09.08.2011 19.1 °C 12.8 °C 3.6 mm
10.08.2011 20.8 °C 10.7 °C 0 mm
11.08.2011 26.6 °C 11.6 °C 0 mm
12.08.2011 24.4 °C 14.8 °C 0.7 mm
13.08.2011 24.5 °C 16 °C 1.8 mm
14.08.2011 29.2 °C 16.6 °C 19.1 mm
15.08.2011 21.2 °C 16.2 °C 28.4 mm
16.08.2011 24.1 °C 15 °C 0 mm
17.08.2011 28.3 °C 14.5 °C 0 mm
18.08.2011 29.8 °C 19 °C 0 mm
19.08.2011 27.5 °C 19.7 °C 4 mm
20.08.2011 28.2 °C 16.4 °C 0 mm
21.08.2011 29.7 °C 19.2 °C 0.4 mm
22.08.2011 33 °C 21.5 °C 0 mm
23.08.2011 36.1 °C 23.1 °C 0 mm
24.08.2011 32.5 °C 20.3 °C 8.3 mm
25.08.2011 28 °C 18.3 °C 0 mm
26.08.2011 34.1 °C 16 °C 0 mm
27.08.2011 16.6 °C 12.2 °C 14.8 mm
28.08.2011 22.5 °C 12.4 °C 0 mm
29.08.2011 21.1 °C 13.4 °C 0 mm
30.08.2011 22 °C 12.8 °C 0 mm
31.08.2011 23.6 °C 11.3 °C 0 mm
*) Messwert für diesen Zeitpunkt noch nicht verfügbar
 Hinweis zur Datenqualität
∅ Temperatur

19 °C

Abweichung vom Mittel

+0.3 °C

Niederschlag

338.4 mm

Abweichung vom Mittel

152 %

36.1 °C

Lufttemperatur
23.08.2011

1023 hPa

Luftdruck
02.06.2011

35.7 km/h

Windböen
08.08.2011

338.40002 mm

Niederschlag
 

9.6 °C

Lufttemperatur
01.06.2011

*) °C

Bodentemperatur 5cm
01.01.1970

998 hPa

Luftdruck
07.06.2011
*) Messwert für diesen Zeitpunkt noch nicht verfügbar
 Hinweis zur Datenqualität